#timestamp,LO_Frequency,Hit,StdDev 
1512874815.6,286047006.9,N
1512874835.5,286047005.4,N
1512874855.3,286047006.6,N
1512874875.1,286047010.0,N
1512874895.9,286047010.5,N
1512874915.7,286047014.9,N
1512874935.5,286047013.8,N
1512874955.4,286047012.2,N
1512874975.2,286047009.5,N
1512874995.0,286047015.3,N
1512874995.9,286047015.3,N
1512875015.7,286047014.5,N
1512875035.6,286047015.8,N
1512875055.4,286047022.9,Y
1512875075.2,286047016.7,P
1512875095.1,286047014.5,N
1512875096.0,286047014.5,N
1512875115.8,286047012.4,N
1512875135.7,286047013.4,Y
1512875155.5,286047001.4,P
1512875175.3,286046997.9,N
1512875195.1,286046991.8,N
1512875215.9,286046991.7,N
1512875235.7,286046993.8,N
1512875255.5,286046992.7,N
1512875275.4,286046992.4,N
1512875295.2,286046993.9,N
1512875315.0,286046995.1,N
1512875315.9,286046995.1,N
1512875335.8,286046998.8,N
1512875355.6,286046997.2,N
1512875375.4,286046996.5,N
1512875395.3,286046999.2,N
1512875415.1,286047000.6,N
1512875416.0,286047000.6,N
1512875435.8,286046999.8,N
1512875455.7,286047003.6,N
1512875475.5,286047002.1,N
1512875495.3,286047000.1,N
1512875515.1,286046997.8,N
1512875535.9,286046989.0,N
1512875555.7,286046990.5,N
1512875575.5,286046992.4,N
1512875595.4,286046988.5,N
1512875615.2,286046987.1,N
1512875635.0,286046988.8,N
1512875635.9,286046988.8,N
1512875655.8,286046989.4,N
1512875675.6,286046984.7,N
1512875695.4,286046981.1,Y
1512875715.3,286046986.8,P
1512875735.1,286046982.2,P
1512875736.0,286046982.2,P
1512875755.8,286046981.0,Y
1512875775.7,286046991.6,P
1512875795.5,286046991.2,P
1512875815.3,286046987.0,P
1512875835.2,286046984.2,Y
1512875855.9,286046996.4,P
1512875875.7,286046994.0,N
1512875895.6,286046994.4,N
1512875915.4,286046995.5,N
1512875935.2,286046996.2,N
1512875955.0,286046995.4,N
1512875956.0,286046995.4,N
1512875975.8,286046994.0,N
1512875995.6,286046996.3,N
1512876015.4,286046997.9,N
1512876035.3,286046995.9,N
1512876055.1,286046994.8,N
1512876075.8,286046994.5,N
1512876095.7,286046993.6,Y
1512876115.5,286047002.0,P
1512876135.3,286046999.4,N
1512876155.2,286047002.3,N
1512876175.0,286046999.8,N
1512876175.9,286046999.8,N
1512876195.7,286046999.8,N
1512876215.6,286047000.6,N
1512876235.4,286047004.8,N
1512876255.2,286047007.4,N
1512876275.1,286047004.9,N
1512876276.0,286047004.9,N
1512876295.8,286047006.4,N
1512876315.6,286047009.2,N
1512876335.5,286047009.2,N
1512876355.3,286047009.0,N
1512876375.1,286047006.4,N
1512876395.8,286047007.5,N
1512876415.7,286047007.4,N
1512876435.5,286047004.7,N
1512876455.3,286047003.4,N
1512876475.2,286047002.9,N
1512876495.9,286047007.6,N
1512876515.7,286047010.8,N
1512876535.6,286047008.0,N
1512876555.4,286047004.9,N
1512876575.2,286047004.9,N
1512876595.1,286047003.6,N
1512876596.0,286047003.6,N
1512876615.8,286047003.6,N
1512876635.6,286047003.1,N
1512876655.5,286047005.8,N
1512876675.3,286047003.3,N
1512876695.1,286047001.6,N
1512876715.8,286046999.8,N
1512876735.7,286046998.8,N
1512876755.5,286047000.9,N
1512876775.3,286046997.6,N
1512876795.2,286046998.3,N
1512876815.0,286046999.1,N
1512876815.9,286046999.1,N
1512876835.7,286046998.0,N
1512876855.6,286046994.2,N
1512876875.4,286046991.2,N
1512876895.2,286046991.6,N
1512876915.1,286046988.4,N
1512876916.0,286046988.4,N
1512876935.8,286046989.0,N
1512876955.6,286046988.6,N
1512876975.5,286046996.1,N
1512876995.3,286046996.6,N
1512877015.1,286046998.6,N
1512877035.9,286047000.5,N
1512877055.7,286046998.9,N
1512877075.5,286046995.3,N
1512877095.3,286046993.1,N
1512877115.2,286046989.9,N
1512877135.0,286046988.8,N
1512877135.9,286046988.8,N
1512877155.7,286046990.8,N
1512877175.6,286046989.1,N
1512877195.4,286046990.0,N
1512877215.2,286046986.3,N
1512877235.1,286046984.1,Y
1512877236.0,286046984.1,P
1512877255.8,286046990.4,N
1512877275.6,286046985.8,P
1512877295.5,286046983.4,Y
1512877315.3,286046995.4,P
1512877335.1,286046997.6,N
1512877355.9,286046995.6,N
1512877375.7,286047001.2,N
1512877395.5,286047002.4,N
1512877415.4,286047003.4,N
1512877435.2,286047001.4,N
1512877455.0,286047005.1,N
1512877455.9,286047005.1,N
1512877475.8,286047008.7,N
1512877495.6,286047003.4,N
1512877515.4,286047001.5,N
1512877535.3,286047001.8,N
1512877555.1,286047001.4,N
1512877556.0,286047001.4,N
1512877575.8,286047000.2,N
1512877595.7,286047000.0,N
1512877615.5,286047004.3,N
1512877635.3,286046996.6,N
1512877655.1,286046995.4,N
1512877675.9,286046996.6,N
1512877695.7,286047000.9,N
1512877715.5,286047001.2,N
1512877735.4,286047001.7,N
1512877755.2,286047008.8,N
1512877775.0,286047007.8,N
1512877775.9,286047007.8,N
1512877795.8,286047008.0,N
1512877815.6,286047009.9,N
1512877835.4,286047011.6,N
1512877855.3,286047012.2,N
1512877875.1,286047010.1,N
1512877876.0,286047010.1,N
1512877895.8,286047012.0,N
1512877915.7,286047010.0,N
1512877935.5,286047008.9,N
1512877955.3,286047008.5,N
1512877975.1,286047009.4,N
1512877995.9,286047009.9,N
1512878015.7,286047011.6,N
1512878035.5,286047012.1,N
1512878055.4,286047007.9,N
1512878075.2,286047010.4,N
1512878095.0,286047011.4,N
1512878095.9,286047011.4,N
1512878115.8,286047014.9,N
1512878135.6,286047014.5,N
1512878155.4,286047013.3,N
1512878175.3,286047015.2,N
1512878195.1,286047017.1,Y
1512878196.0,286047017.1,P
1512878215.8,286047007.0,N
1512878235.7,286047005.0,N
1512878255.5,286047007.3,N
1512878275.3,286047006.5,N
1512878295.2,286047007.4,N
1512878315.9,286047001.4,N
1512878335.7,286047004.1,N
1512878355.5,286047003.6,N
1512878375.4,286047001.1,N
1512878395.2,286046997.8,N
